EW4999 Weather Reports


Display with metric or nautical units.
time (UTC)temp
F
wind
direction
speed
MPH
gust
MPH
rain 1hr
in
rain 24hr
in
rain mn
in
humidity
%
barometer
mb
20260510155951 60 250 3.0 8.0 0.00 0.36 0.03 85 1011.2
20260510154451 58 213 2.0 6.0 0.00 0.37 0.03 85 1011.4
20260510152949 58 271 1.0 7.0 0.00 0.40 0.03 89 1011.2
20260510151449 57 270 3.0 8.0 0.00 0.42 0.03 90 1010.8
20260510145949 56 88 3.0 8.0 0.00 0.43 0.03 91 1010.9
20260510144449 56 150 2.0 8.0 0.00 0.45 0.03 93 1010.9
20260510142950 55 304 1.0 9.0 0.00 0.46 0.03 97 1011.0
20260510141448 53 108 2.0 9.0 0.00 0.48 0.03 98 1010.9
20260510135949 53 265 2.0 8.0 0.00 0.49 0.03 98 1010.8
20260510134445 52 258 2.0 8.0 0.00 0.50 0.03 98 1011.0
20260510132945 52 246 2.0 7.0 0.00 0.50 0.03 98 1011.2
20260510131445 51 284 2.0 7.0 0.00 0.50 0.03 98 1011.0
20260510130718 51 226 2.0 7.0 0.00 0.50 0.03 98 1010.8
20260510124444 51 229 2.0 7.0 0.00 0.50 0.03 98 1011.2
20260510122944 50 274 2.0 9.0 0.00 0.50 0.03 98 1010.9
20260510121445 50 225 2.0 6.0 0.00 0.50 0.03 98 1010.9
20260510115945 50 245 2.0 6.0 0.00 0.50 0.03 98 1011.0
20260510114445 49 118 2.0 4.0 0.00 0.50 0.03 98 1010.9
20260510112945 49 200 1.0 5.0 0.00 0.50 0.03 98 1010.6
20260510111444 49 209 1.0 8.0 0.00 0.50 0.03 98 1010.8
20260510105944 49 228 3.0 9.0 0.00 0.50 0.03 98 1010.5
20260510104445 49 229 1.0 4.0 0.00 0.50 0.03 98 1010.3
20260510102944 49 234 2.0 7.0 0.00 0.50 0.03 98 1009.9
20260510102216 49 239 1.0 7.0 0.00 0.50 0.03 98 1009.6
20260510095945 49 245 1.0 5.0 0.00 0.50 0.03 98 1009.2
20260510094444 49 177 1.0 3.0 0.00 0.50 0.03 98 1009.3
20260510093712 49 279 1.0 4.0 0.00 0.50 0.03 98 1009.3
20260510092212 49 236 1.0 4.0 0.00 0.50 0.03 98 1009.0
20260510085938 49 251 1.0 7.0 0.00 0.50 0.03 98 1008.9
20260510085210 49 251 0.0 2.0 0.00 0.50 0.03 98 1009.4
20260510082936 49 232 0.0 2.0 0.00 0.50 0.03 98 1009.6
20260510081436 49 203 0.0 2.0 0.00 0.50 0.03 98 1009.4
20260510075934 49 242 1.0 2.0 0.00 0.50 0.03 98 1009.6
20260510074433 49 231 1.0 10.0 0.00 0.50 0.03 98 1009.6
20260510072931 49 123 1.0 5.0 0.00 0.50 0.03 98 1009.5
20260510071432 49 251 2.0 5.0 0.00 0.50 0.03 98 1009.5
20260510065930 49 207 2.0 5.0 0.00 0.50 0.03 98 1009.4
20260510064430 49 244 0.0 3.0 0.00 0.50 0.03 98 1009.6
20260510062933 48 228 0.0 3.0 0.00 0.50 0.03 98 1009.5
20260510062928 49 248 0.0 3.0 0.00 0.50 0.03 98 1009.6
20260510055924 48 263 0.0 2.0 0.01 0.50 0.03 98 1009.6
20260510054425 48 170 0.0 3.0 0.02 0.50 0.03 98 1009.6
20260510052922 48 182 0.0 0.0 0.02 0.50 0.03 98 1009.7
20260510051424 48 199 0.0 2.0 0.02 0.49 0.02 98 1009.7
20260510051420 48 168 0.0 2.0 0.02 0.50 0.03 98 1009.7
20260510044417 48 201 1.0 3.0 0.01 0.48 0.01 98 1009.9
20260510042915 48 256 0.0 2.0 0.01 0.48 0.01 98 1009.8
20260510041415 48 233 0.0 2.0 0.01 0.48 0.01 98 1009.9
20260510035913 47 266 0.0 1.0 0.00 0.47 0.47 98 1010.0
20260510034411 47 239 0.0 0.0 0.00 0.47 0.47 98 1009.9
20260510032908 47 213 0.0 2.0 0.00 0.47 0.47 98 1009.8
20260510032139 47 250 0.0 2.0 0.00 0.47 0.47 98 1009.9
20260510030639 47 274 1.0 5.0 0.00 0.47 0.47 98 1009.9
20260510024409 47 234 1.0 4.0 0.00 0.47 0.47 98 1010.1
20260510022907 47 298 1.0 3.0 0.00 0.47 0.47 98 1010.4
20260510021405 47 311 1.0 4.0 0.00 0.47 0.47 98 1010.4
20260510015902 47 232 0.0 3.0 0.00 0.47 0.47 98 1010.3
20260510014402 47 300 1.0 3.0 0.00 0.47 0.47 98 1010.4
20260510012902 47 60 0.0 3.0 0.00 0.47 0.47 98 1010.2
20260510011402 47 223 1.0 5.0 0.00 0.47 0.47 98 1010.3
20260510005901 47 269 1.0 5.0 0.00 0.47 0.47 97 1010.3
20260510004359 47 282 0.0 3.0 0.00 0.47 0.47 97 1010.2
20260510003630 47 292 0.0 2.0 0.00 0.47 0.47 97 1010.2
20260510001358 47 282 1.0 5.0 0.00 0.47 0.47 97 1010.0
20260510000630 47 269 1.0 5.0 0.00 0.47 0.47 97 1009.7
20260509234358 47 254 0.0 4.0 0.00 0.47 0.47 97 1009.6
20260509232857 47 259 1.0 4.0 0.00 0.47 0.47 97 1009.6
20260509231357 47 186 1.0 4.0 0.00 0.47 0.47 97 1009.6
20260509225854 48 246 1.0 4.0 0.00 0.47 0.47 97 1009.6
20260509225123 48 101 0.0 3.0 0.00 0.47 0.47 97 1009.7
20260509222852 47 214 0.0 2.0 0.00 0.47 0.47 97 1009.7
20260509221350 47 155 0.0 2.0 0.00 0.47 0.47 97 1009.8
20260509220620 47 153 0.0 2.0 0.01 0.47 0.47 97 1009.8
20260509220007 47 165 0.0 2.0 0.01 0.47 0.47 97 1009.9
20260509212845 47 149 0.0 3.0 0.03 0.47 0.47 97 1010.1
20260509211347 47 123 0.0 3.0 0.04 0.47 0.47 97 1010.2
20260509205841 47 247 0.0 3.0 0.04 0.46 0.46 97 1010.3
20260509205112 47 242 1.0 4.0 0.05 0.46 0.46 97 1010.3
20260509203613 47 198 1.0 4.0 0.07 0.43 0.43 97 1010.2
20260509202947 47 234 1.0 5.0 0.06 0.44 0.44 97 1010.2
20260509200608 47 227 0.0 2.0 0.09 0.42 0.42 97 1010.4
20260509194339 47 144 1.0 2.0 0.10 0.40 0.41 97 1010.7
20260509192839 46 217 0.0 6.0 0.09 0.38 0.39 97 1010.7
20260509191344 46 219 0.0 5.0 0.08 0.33 0.34 97 1010.9
20260509191339 46 293 1.0 4.0 0.09 0.36 0.36 97 1010.8
20260509184338 47 226 1.0 4.0 0.07 0.30 0.31 97 1011.2
20260509182837 47 213 1.0 6.0 0.08 0.29 0.29 97 1011.2
20260509181339 47 86 1.0 6.0 0.08 0.27 0.27 97 1011.4
20260509175837 46 225 1.0 5.0 0.07 0.25 0.25 96 1011.5
20260509174336 46 144 0.0 3.0 0.06 0.23 0.23 97 1011.5
20260509172836 46 256 0.0 3.0 0.05 0.21 0.21 96 1011.7
20260509171335 46 256 1.0 3.0 0.04 0.19 0.19 96 1011.8
20260509165830 45 202 1.0 4.0 0.04 0.18 0.18 96 1011.9
20260509164331 45 245 1.0 3.0 0.05 0.17 0.17 96 1012.0
20260509162827 44 220 0.0 2.0 0.06 0.16 0.16 96 1012.2
20260509161328 44 249 1.0 3.0 0.07 0.15 0.15 96 1012.3